N869KN TLPL-TVSM

Flight info

Callsign N869KN
Flight time 0h 21m
Altitude 6000
Route RIBOR
Aircraft BE58/L-SDFGRY/C

Departure

Time 2026-05-05 13:01
Airport Hewanorra International Airport (TLPL)

Arrival

Time 2026-05-05 13:22
Airport Mustique Airport (TVSM)
Time Latitude Longitude Altitude Speed Heading
2026-05-05 12:56 13.73480 -60.95157 22 ft 3 kts 173°
2026-05-05 12:56 13.73397 -60.95151 20 ft 18 kts 176°
2026-05-05 12:57 13.73341 -60.95279 22 ft 30 kts 271°
2026-05-05 12:57 13.73339 -60.95543 23 ft 44 kts 268°
2026-05-05 12:57 13.73342 -60.95891 25 ft 52 kts 271°
2026-05-05 12:57 13.73343 -60.96272 23 ft 49 kts 270°
2026-05-05 12:58 13.73328 -60.96504 19 ft 26 kts 252°
2026-05-05 12:58 13.73346 -60.96521 19 ft 0 kts 92°
2026-05-05 13:00 13.73341 -60.96156 27 ft 89 kts 91°
2026-05-05 13:00 13.73343 -60.95419 297 ft 114 kts 92°
2026-05-05 13:01 13.71186 -60.94647 1513 ft 159 kts 217°
2026-05-05 13:01 13.70498 -60.95560 1807 ft 162 kts 231°
2026-05-05 13:01 13.69770 -60.96424 2201 ft 158 kts 220°
2026-05-05 13:01 13.68928 -60.97140 2565 ft 156 kts 212°
2026-05-05 13:02 13.68027 -60.97743 2935 ft 152 kts 204°
2026-05-05 13:02 13.67112 -60.98271 3313 ft 150 kts 203°
2026-05-05 13:02 13.66179 -60.98766 3646 ft 150 kts 201°
2026-05-05 13:02 13.65254 -60.99236 4008 ft 147 kts 199°
2026-05-05 13:03 13.64345 -60.99689 4359 ft 145 kts 199°
2026-05-05 13:03 13.63438 -61.00136 4727 ft 144 kts 199°
2026-05-05 13:03 13.62542 -61.00575 5082 ft 142 kts 199°
2026-05-05 13:03 13.61654 -61.01010 5411 ft 141 kts 198°
2026-05-05 13:04 13.60773 -61.01440 5740 ft 139 kts 199°
2026-05-05 13:04 13.59906 -61.01865 6044 ft 138 kts 198°
2026-05-05 13:04 13.58973 -61.02315 6030 ft 156 kts 199°
2026-05-05 13:04 13.57946 -61.02813 6022 ft 170 kts 199°
2026-05-05 13:05 13.56857 -61.03348 6003 ft 174 kts 200°
2026-05-05 13:05 13.55773 -61.03888 5998 ft 173 kts 200°
2026-05-05 13:05 13.54690 -61.04422 5991 ft 173 kts 200°
2026-05-05 13:05 13.53619 -61.04947 5989 ft 172 kts 199°
2026-05-05 13:06 13.52552 -61.05472 5987 ft 168 kts 199°
2026-05-05 13:06 13.51494 -61.05990 5986 ft 168 kts 199°
2026-05-05 13:06 13.50439 -61.06505 5988 ft 168 kts 199°
2026-05-05 13:06 13.49385 -61.07021 5986 ft 167 kts 199°
2026-05-05 13:07 13.48346 -61.07529 5990 ft 166 kts 199°
2026-05-05 13:07 13.47299 -61.08038 5991 ft 165 kts 199°
2026-05-05 13:07 13.46263 -61.08541 5988 ft 164 kts 199°
2026-05-05 13:07 13.45232 -61.09042 5992 ft 164 kts 200°
2026-05-05 13:08 13.44202 -61.09549 5987 ft 164 kts 200°
2026-05-05 13:08 13.43174 -61.10055 5989 ft 164 kts 200°
2026-05-05 13:08 13.42141 -61.10562 5989 ft 165 kts 200°
2026-05-05 13:08 13.41097 -61.11073 5984 ft 165 kts 200°
2026-05-05 13:09 13.40075 -61.11572 5984 ft 165 kts 200°
2026-05-05 13:09 13.39039 -61.12079 5986 ft 165 kts 200°
2026-05-05 13:09 13.37982 -61.12526 5983 ft 162 kts 189°
2026-05-05 13:09 13.36886 -61.12660 5984 ft 159 kts 179°
2026-05-05 13:10 13.35773 -61.12771 5998 ft 161 kts 182°
2026-05-05 13:10 13.34661 -61.12907 6001 ft 161 kts 181°
2026-05-05 13:10 13.33541 -61.13042 5994 ft 162 kts 182°
2026-05-05 13:10 13.32424 -61.13174 6002 ft 162 kts 182°
2026-05-05 13:11 13.31295 -61.13302 6012 ft 164 kts 181°
2026-05-05 13:11 13.30155 -61.13428 6004 ft 165 kts 181°
2026-05-05 13:11 13.29011 -61.13557 6006 ft 166 kts 181°
2026-05-05 13:11 13.27859 -61.13685 6001 ft 166 kts 181°
2026-05-05 13:12 13.26726 -61.13810 6005 ft 166 kts 181°
2026-05-05 13:12 13.25576 -61.13937 6006 ft 166 kts 181°
2026-05-05 13:12 13.24425 -61.14064 6006 ft 167 kts 181°
2026-05-05 13:12 13.23274 -61.14193 6003 ft 167 kts 181°
2026-05-05 13:13 13.22114 -61.14321 6007 ft 167 kts 181°
2026-05-05 13:13 13.20958 -61.14448 6006 ft 165 kts 181°
2026-05-05 13:13 13.19796 -61.14576 5774 ft 170 kts 181°
2026-05-05 13:13 13.18604 -61.14707 5538 ft 174 kts 181°
2026-05-05 13:14 13.17393 -61.14841 5309 ft 177 kts 181°
2026-05-05 13:14 13.16154 -61.14977 5081 ft 181 kts 181°
2026-05-05 13:14 13.14900 -61.15121 4866 ft 184 kts 182°
2026-05-05 13:14 13.13614 -61.15268 4600 ft 185 kts 181°
2026-05-05 13:15 13.12332 -61.15406 4332 ft 186 kts 181°
2026-05-05 13:15 13.11044 -61.15548 4083 ft 186 kts 181°
2026-05-05 13:15 13.09755 -61.15690 3832 ft 186 kts 180°
2026-05-05 13:15 13.08464 -61.15832 3584 ft 187 kts 181°
2026-05-05 13:16 13.07175 -61.15975 3343 ft 187 kts 181°
2026-05-05 13:16 13.05880 -61.16119 3093 ft 187 kts 181°
2026-05-05 13:16 13.04582 -61.16262 2843 ft 188 kts 182°
2026-05-05 13:16 13.03286 -61.16405 2589 ft 187 kts 182°
2026-05-05 13:17 13.01993 -61.16548 2353 ft 187 kts 181°
2026-05-05 13:17 13.00693 -61.16692 2111 ft 189 kts 181°
2026-05-05 13:17 12.99384 -61.16836 1861 ft 189 kts 182°
2026-05-05 13:17 12.98077 -61.16981 1622 ft 189 kts 181°
2026-05-05 13:18 12.96789 -61.17123 1375 ft 190 kts 181°
2026-05-05 13:18 12.95450 -61.17269 1128 ft 191 kts 182°
2026-05-05 13:18 12.94135 -61.17415 1036 ft 186 kts 180°
2026-05-05 13:18 12.92915 -61.17666 1011 ft 183 kts 201°
2026-05-05 13:19 12.92025 -61.18577 999 ft 181 kts 239°
2026-05-05 13:19 12.91469 -61.19715 998 ft 176 kts 244°
2026-05-05 13:19 12.91006 -61.20860 1000 ft 174 kts 247°
2026-05-05 13:19 12.90571 -61.22011 987 ft 170 kts 247°
2026-05-05 13:20 12.90168 -61.23139 996 ft 168 kts 243°
2026-05-05 13:20 12.89378 -61.23934 1001 ft 159 kts 195°
2026-05-05 13:20 12.88343 -61.23860 1005 ft 149 kts 147°
2026-05-05 13:20 12.87721 -61.23066 1002 ft 144 kts 107°
2026-05-05 13:21 12.87631 -61.22087 1005 ft 135 kts 86°
2026-05-05 13:21 12.87769 -61.21157 996 ft 125 kts 77°
2026-05-05 13:21 12.88034 -61.20318 783 ft 118 kts 73°
2026-05-05 13:21 12.88295 -61.19608 509 ft 98 kts 76°
2026-05-05 13:22 12.88499 -61.18931 286 ft 99 kts 77°
2026-05-05 13:22 12.88688 -61.18261 31 ft 89 kts 71°
2026-05-05 13:22 12.88843 -61.17801 24 ft 50 kts 72°
2026-05-05 13:22 12.88907 -61.17606 52 ft 4 kts 338°
2026-05-05 13:23 12.88887 -61.17677 32 ft 19 kts 250°
2026-05-05 13:23 12.88842 -61.17804 23 ft 14 kts 249°
2026-05-05 13:23 12.88815 -61.17884 23 ft 10 kts 252°
2026-05-05 13:23 12.88802 -61.17923 23 ft 4 kts 250°
2026-05-05 13:24 12.88794 -61.17945 25 ft 3 kts 250°
2026-05-05 13:24 12.88790 -61.17956 23 ft 0 kts 250°
2026-05-05 13:24 12.88785 -61.17972 22 ft 4 kts 250°
2026-05-05 13:24 12.88753 -61.17995 22 ft 0 kts 180°
2026-05-05 13:25 12.88727 -61.18014 21 ft 11 kts 262°
2026-05-05 13:25 12.88706 -61.18037 19 ft 6 kts 162°
2026-05-05 13:25 12.88702 -61.18034 19 ft 1 kts 117°
2026-05-05 13:25 12.88703 -61.18029 19 ft 0 kts 44°
2026-05-05 13:41 12.88704 -61.18028 16 ft 2 kts 34°
2026-05-05 13:41 12.88739 -61.17994 21 ft 7 kts 358°
2026-05-05 13:41 12.88775 -61.17978 22 ft 8 kts 68°
2026-05-05 13:41 12.88760 -61.18050 19 ft 22 kts 250°
2026-05-05 13:42 12.88697 -61.18244 16 ft 24 kts 251°
2026-05-05 13:42 12.88670 -61.18317 17 ft 3 kts 248°
2026-05-05 13:42 12.88656 -61.18354 18 ft 3 kts 252°
2026-05-05 13:42 12.88648 -61.18388 27 ft 4 kts 261°
2026-05-05 13:43 12.88647 -61.18394 28 ft 4 kts 261°
2026-05-05 13:43 12.88650 -61.18373 22 ft 4 kts 265°
2026-05-05 13:43 12.88642 -61.18434 43 ft 8 kts 277°
2026-05-05 13:43 12.88642 -61.18445 47 ft 1 kts 274°
2026-05-05 13:44 12.88642 -61.18463 54 ft 4 kts 237°
2026-05-05 13:44 12.88666 -61.18342 17 ft 57 kts 73°
2026-05-05 13:44 12.88860 -61.17763 131 ft 102 kts 73°
2026-05-05 13:44 12.89284 -61.17141 445 ft 121 kts 41°
2026-05-05 13:45 12.90148 -61.16857 741 ft 141 kts
2026-05-05 13:45 12.91033 -61.17308 951 ft 151 kts 316°
2026-05-05 13:45 12.91603 -61.18276 984 ft 164 kts 304°
2026-05-05 13:45 12.92238 -61.19276 994 ft 170 kts 307°
2026-05-05 13:46 12.92905 -61.20290 991 ft 173 kts 307°
2026-05-05 13:46 12.93581 -61.21326 990 ft 175 kts 307°
2026-05-05 13:46 12.94251 -61.22373 989 ft 176 kts 307°
2026-05-05 13:46 12.94923 -61.23429 991 ft 178 kts 307°
2026-05-05 13:47 12.95598 -61.24496 994 ft 179 kts 303°
2026-05-05 13:47 12.95993 -61.25718 1004 ft 181 kts 288°
2026-05-05 13:47 12.96322 -61.26963 1009 ft 182 kts 287°
2026-05-05 13:47 12.96645 -61.28238 1014 ft 182 kts 286°
2026-05-05 13:48 12.97169 -61.29354 1000 ft 169 kts 320°
2026-05-05 13:48 12.98134 -61.29773 1007 ft 140 kts
2026-05-05 13:48 12.99030 -61.29797 757 ft 131 kts 14°
2026-05-05 13:48 12.99666 -61.29431 872 ft 88 kts 55°
2026-05-05 13:49 12.99686 -61.28851 721 ft 93 kts 116°
2026-05-05 13:49 12.99369 -61.28274 513 ft 92 kts 108°
2026-05-05 13:49 12.99176 -61.27630 234 ft 101 kts 104°
2026-05-05 13:49 12.99029 -61.26942 104 ft 95 kts 102°
2026-05-05 13:50 12.98897 -61.26395 37 ft 62 kts 102°
2026-05-05 13:50 12.98838 -61.26128 34 ft 5 kts 47°
2026-05-05 13:50 12.98862 -61.26119 35 ft 0 kts 13°
2026-05-05 13:50 12.98875 -61.26117 35 ft 5 kts 11°
2026-05-05 13:51 12.98883 -61.26115 35 ft 1 kts 12°
2026-05-05 13:51 12.98894 -61.26113 35 ft 0 kts 13°
2026-05-05 13:53 12.98895 -61.26112 35 ft 3 kts 15°
2026-05-05 13:53 12.98912 -61.26063 36 ft 8 kts 103°
2026-05-05 13:54 12.98897 -61.26088 36 ft 6 kts 206°
2026-05-05 13:54 12.98884 -61.26070 36 ft 0 kts 105°